(187974) = 2001 QV118

Discovered at Socorro on 2001-08-17 by LINEAR.

Orbit

Orbit type: Main Belt

Note: WebGL enabled browser required.

epoch2024-03-31.0
epoch JD2460400.5
perihelion date2025-09-30.27800
perihelion JD2460948.77800
argument of perihelion (°)178.76166
ascending node (°)203.18695
inclination (°)12.59458
eccentricity0.1755155
perihelion distance (AU)2.0757034
Tisserand w.r.t. Jupiter3.4
ΔV w.r.t. Earth (km/sec)9.8
semimajor axis (AU)2.5175772
mean anomaly (°)224.72097
mean daily motion (°/day)0.24673440
aphelion distance (AU)2.959
period (years)3.99
P-vector [x]0.92731472
P-vector [y]0.34149580
P-vector [z]0.15319277
Q-vector [x]-0.36430282
Q-vector [y]0.91740889
Q-vector [z]0.16013866
absolute magnitude16.53
phase slope0.15
uncertainty0
referenceMPEC 2024-C181
observations used927
oppositions16
arc length (days)9797
first opposition used1996
last opposition used2023
residual rms (arc-secs)0.73
perturbers coarse indicatorM-v
perturbers precise indicator003Ek
first observation date used1996-06-20.0
last observation date used2023-04-17.0
computer nameMPCLINUX
JD of orbit computation2456639.798555
perihelion JD uncertainty (days)1.9507E-04
argument of perihelion uncertainty (°)7.0097E-05
ascending node uncertainty (°)1.2760E-05
inclination uncertainty (°)9.1789E-06
eccentricity uncertainty 4.0255E-07
perihelion distance uncertainty (AU)1.0087E-06
Minimum Orbit Intersection Distances (in AU)
for orbit epoch: 2460400.5, reference: E2024-FA5
Mercury1.73755
Venus1.35216
Earth1.079
Mars0.64536
Jupiter2.48896
Saturn6.60102
Uranus15.5599
Neptune27.6866

Observations

963 total observations over interval: 1996 06 20.21185 – 2023 04 17.251681
These data are available for download (format description).

Date (UT) J2000 RA J2000 Dec Magn Location Ref
1996 06 20.21185 15 38 07.79 -06 32 37.5 21.1 V 691 – Steward Observatory, Kitt Peak-Spacewatch MPS 79883
1996 06 20.23792 15 38 06.86 -06 32 34.7 20.8 V 691 – Steward Observatory, Kitt Peak-Spacewatch MPS 79883
1996 06 20.26183 15 38 06.00 -06 32 31.5 21.1 V 691 – Steward Observatory, Kitt Peak-Spacewatch MPS 79883
1997 09 26.91490 01 25 06.13 +12 55 13.4   557 – Ondrejov MPS 36028
1997 09 26.92399 01 25 05.79 +12 55 07.7 19.4 V 557 – Ondrejov MPS 36028
1997 09 26.93274 01 25 05.46 +12 55 01.7   557 – Ondrejov MPS 36028
1997 10 30.16754 01 04 10.16 +05 37 15.9   704 – Lincoln Laboratory ETS, New Mexico MPS 36028
1997 10 30.18506 01 04 09.68 +05 37 01.7   704 – Lincoln Laboratory ETS, New Mexico MPS 36028
1997 10 30.21971 01 04 08.63 +05 36 35.8   704 – Lincoln Laboratory ETS, New Mexico MPS 36028
1997 10 30.23914 01 04 07.72 +05 36 24.5   704 – Lincoln Laboratory ETS, New Mexico MPS 36028
2001 08 17.36104 01 28 07.69 +16 53 47.9 20.1   704 – Lincoln Laboratory ETS, New Mexico MPS 33662
2001 08 17.37313 01 28 08.13 +16 53 49.0 20.2   704 – Lincoln Laboratory ETS, New Mexico MPS 33662
2001 08 17.38530 01 28 08.54 +16 53 48.4 20.3   704 – Lincoln Laboratory ETS, New Mexico MPS 33662
2001 08 25.39645 01 32 15.26 +16 45 43.9 19.7   704 – Lincoln Laboratory ETS, New Mexico MPS 33662
2001 08 25.40925 01 32 15.47 +16 45 41.3 19.9   704 – Lincoln Laboratory ETS, New Mexico MPS 33662
2001 08 25.42202 01 32 15.85 +16 45 40.0 20.1   704 – Lincoln Laboratory ETS, New Mexico MPS 33662
2001 08 28.33273 01 33 19.12 +16 38 29.4 19.4 R 699 – Lowell Observatory-LONEOS MPS 34713
2001 08 28.35931 01 33 19.62 +16 38 25.9   699 – Lowell Observatory-LONEOS MPS 34713
2001 08 28.38596 01 33 20.10 +16 38 21.1   699 – Lowell Observatory-LONEOS MPS 34713
2001 08 28.41266 01 33 20.51 +16 38 16.3   699 – Lowell Observatory-LONEOS MPS 34713
2001 09 10.33264 01 34 59.09 +15 36 49.3 18.9   704 – Lincoln Laboratory ETS, New Mexico MPS 34713
2001 09 10.34626 01 34 59.00 +15 36 44.3 19.4   704 – Lincoln Laboratory ETS, New Mexico MPS 34713
2001 09 10.35991 01 34 58.93 +15 36 38.9 19.6   704 – Lincoln Laboratory ETS, New Mexico MPS 34713
2001 09 10.37355 01 34 58.81 +15 36 33.2 19.6   704 – Lincoln Laboratory ETS, New Mexico MPS 34713
2001 09 10.38719 01 34 58.75 +15 36 27.8 19.5   704 – Lincoln Laboratory ETS, New Mexico MPS 34713
2001 09 17.35124 01 33 47.14 +14 42 30.8 20.0   704 – Lincoln Laboratory ETS, New Mexico MPS 36028
2001 09 17.36563 01 33 46.93 +14 42 23.0 20.0   704 – Lincoln Laboratory ETS, New Mexico MPS 36028
2001 09 17.37961 01 33 46.53 +14 42 14.2 20.0   704 – Lincoln Laboratory ETS, New Mexico MPS 36028
2001 09 17.39520 01 33 46.31 +14 42 07.7 20.2   704 – Lincoln Laboratory ETS, New Mexico MPS 36028
2001 09 20.32901 01 32 51.26 +14 15 02.7 18.7   704 – Lincoln Laboratory ETS, New Mexico MPS 36028
2001 09 20.34711 01 32 50.87 +14 14 52.2 19.4   704 – Lincoln Laboratory ETS, New Mexico MPS 36028
2001 09 20.36130 01 32 50.49 +14 14 44.4 19.0   704 – Lincoln Laboratory ETS, New Mexico MPS 36028
2001 09 20.37549 01 32 50.19 +14 14 36.3 19.2   704 – Lincoln Laboratory ETS, New Mexico MPS 36028
2001 09 24.33987 01 31 14.32 +13 34 06.6 19.1   704 – Lincoln Laboratory ETS, New Mexico MPS 40295
2001 09 24.35448 01 31 13.93 +13 33 57.4 19.3   704 – Lincoln Laboratory ETS, New Mexico MPS 40295
2001 09 24.36909 01 31 13.40 +13 33 47.5 19.4   704 – Lincoln Laboratory ETS, New Mexico MPS 40295
2001 09 24.38371 01 31 13.00 +13 33 38.5 19.4   704 – Lincoln Laboratory ETS, New Mexico MPS 40295
2001 09 24.39835 01 31 12.57 +13 33 28.4 19.5   704 – Lincoln Laboratory ETS, New Mexico MPS 40295
2001 10 07.30375 01 23 49.12 +10 56 22.7 19.8   644 – Palomar Mountain/NEAT MPS 37801
2001 10 07.32435 01 23 48.24 +10 56 06.0 19.0   644 – Palomar Mountain/NEAT MPS 37801
2001 10 07.34490 01 23 47.35 +10 55 49.3 19.4   644 – Palomar Mountain/NEAT MPS 37801
2001 10 12.26519 01 20 26.17 +09 49 05.0 18.2 R 699 – Lowell Observatory-LONEOS MPS 37801
2001 10 12.28856 01 20 25.14 +09 48 45.5   699 – Lowell Observatory-LONEOS MPS 37801
2001 10 12.31200 01 20 24.07 +09 48 25.9   699 – Lowell Observatory-LONEOS MPS 37801
2001 10 12.33550 01 20 23.04 +09 48 06.9   699 – Lowell Observatory-LONEOS MPS 37801
2001 10 13.24755 01 19 45.22 +09 35 32.3 18.7   704 – Lincoln Laboratory ETS, New Mexico MPS 37801
2001 10 13.26319 01 19 44.50 +09 35 19.5 19.1   704 – Lincoln Laboratory ETS, New Mexico MPS 37801
2001 10 13.27894 01 19 43.76 +09 35 06.9 18.6   704 – Lincoln Laboratory ETS, New Mexico MPS 37801
2001 10 13.29459 01 19 43.08 +09 34 54.0 18.4   704 – Lincoln Laboratory ETS, New Mexico MPS 37801
2001 10 13.31049 01 19 42.39 +09 34 40.7 18.4   704 – Lincoln Laboratory ETS, New Mexico MPS 37801
2001 10 14.19209 01 19 05.96 +09 22 28.8 18.0 R 699 – Lowell Observatory-LONEOS MPS 37801
2001 10 14.19681 01 19 05.76 +09 22 25.5   699 – Lowell Observatory-LONEOS MPS 37801
2001 10 14.20152 01 19 05.52 +09 22 21.6   699 – Lowell Observatory-LONEOS MPS 37801
2001 10 14.20621 01 19 05.31 +09 22 17.9   699 – Lowell Observatory-LONEOS MPS 37801
2001 10 17.24657 01 16 58.74 +08 40 12.8 18.5   704 – Lincoln Laboratory ETS, New Mexico MPS 39257
2001 10 17.26258 01 16 58.03 +08 39 59.0 19.0   704 – Lincoln Laboratory ETS, New Mexico MPS 39257
2001 10 17.27856 01 16 57.33 +08 39 45.6 18.9   704 – Lincoln Laboratory ETS, New Mexico MPS 39257
2001 10 17.29454 01 16 56.61 +08 39 32.2 18.9   704 – Lincoln Laboratory ETS, New Mexico MPS 39257
2001 10 17.31088 01 16 55.92 +08 39 18.5 18.9   704 – Lincoln Laboratory ETS, New Mexico MPS 39257
2001 10 19.29264 01 15 34.86 +08 12 00.0 18.3   644 – Palomar Mountain/NEAT MPS 39257
2001 10 19.31311 01 15 33.96 +08 11 43.0 18.4   644 – Palomar Mountain/NEAT MPS 39257
2001 10 19.33430 01 15 33.06 +08 11 25.5 18.4   644 – Palomar Mountain/NEAT MPS 39257
2001 10 21.24860 01 14 16.66 +07 45 15.6 18.2   704 – Lincoln Laboratory ETS, New Mexico MPS 39257
2001 10 21.27482 01 14 15.53 +07 44 54.0 18.3   704 – Lincoln Laboratory ETS, New Mexico MPS 39257
2001 10 21.29245 01 14 14.79 +07 44 39.9 18.3   704 – Lincoln Laboratory ETS, New Mexico MPS 39257
2001 10 21.30888 01 14 14.11 +07 44 26.1 18.5   704 – Lincoln Laboratory ETS, New Mexico MPS 39257
2001 10 21.32550 01 14 13.40 +07 44 12.6 18.1   704 – Lincoln Laboratory ETS, New Mexico MPS 39257
2001 10 23.26000 01 12 58.63 +07 18 06.7 18.7   704 – Lincoln Laboratory ETS, New Mexico MPS 39257
2001 10 23.27640 01 12 57.95 +07 17 53.3 18.7   704 – Lincoln Laboratory ETS, New Mexico MPS 39257
2001 10 23.30921 01 12 56.62 +07 17 27.7 18.6   704 – Lincoln Laboratory ETS, New Mexico MPS 39257
2001 10 23.32563 01 12 55.98 +07 17 14.2 19.2   704 – Lincoln Laboratory ETS, New Mexico MPS 39257
2001 10 24.24518 01 12 21.55 +07 04 59.0 18.5   704 – Lincoln Laboratory ETS, New Mexico MPS 39257
2001 10 24.26170 01 12 20.87 +07 04 45.7 18.7   704 – Lincoln Laboratory ETS, New Mexico MPS 39257
2001 10 24.27825 01 12 20.24 +07 04 32.9 18.8   704 – Lincoln Laboratory ETS, New Mexico MPS 39257
2001 10 24.29479 01 12 19.57 +07 04 19.7 18.6   704 – Lincoln Laboratory ETS, New Mexico MPS 39257
2001 10 24.31133 01 12 18.88 +07 04 06.1 19.1   704 – Lincoln Laboratory ETS, New Mexico MPS 39257
2001 11 15.20070 01 03 42.71 +03 05 02.6 19.2   644 – Palomar Mountain/NEAT MPS 41883
2001 11 15.22164 01 03 42.53 +03 04 52.7 19.6   644 – Palomar Mountain/NEAT MPS 41883
2001 11 15.24310 01 03 42.30 +03 04 42.6 19.4   644 – Palomar Mountain/NEAT MPS 41883
2001 11 18.21596 01 03 30.39 +02 42 29.7 19.7   704 – Lincoln Laboratory ETS, New Mexico MPS 41883
2001 11 18.23086 01 03 30.33 +02 42 23.5 20.1   704 – Lincoln Laboratory ETS, New Mexico MPS 41883
2001 11 18.24576 01 03 30.25 +02 42 16.4 19.8   704 – Lincoln Laboratory ETS, New Mexico MPS 41883
2001 11 18.26066 01 03 30.26 +02 42 10.8 19.8   704 – Lincoln Laboratory ETS, New Mexico MPS 41883
2001 11 18.27558 01 03 30.15 +02 42 04.1 19.9   704 – Lincoln Laboratory ETS, New Mexico MPS 41883
2001 11 20.14179 01 03 31.25 +02 29 35.9 19.2   704 – Lincoln Laboratory ETS, New Mexico MPS 41883
2001 11 20.15646 01 03 31.22 +02 29 30.1 19.5   704 – Lincoln Laboratory ETS, New Mexico MPS 41883
